Wetbulb
62.95 63.26 63.29 63.18 62.94 62.64 62.56 62.55 62.55 62.72 62.89 63.07 62.96 62.39 62.08 62.42 62.02 57.46 51.44 56.34 60.40 70.33 68.87 58.84 58.34 56.23 55.93 53.61 54.54 52.40 43.28 37.77 41.24 43.67 45.34 48.42 47.55 51.02 52.23 48.73 49.83 50.68 51.77 54.95 60.28
62.89 63.02 62.88 62.82 62.47 62.54 62.84 62.65 62.80 62.85 63.03 63.29 63.28 62.64 62.04 62.10 57.45 52.59 59.83 68.13 70.14 70.96 58.09 54.42 52.55 53.38 49.47 50.64 50.61 46.27 40.19 42.78 48.10 46.73 46.45 49.20 47.52 48.64 48.02 47.14 47.38 48.28 51.02 53.58 56.68
61.42 61.58 61.15 60.73 60.68 60.88 61.10 61.25 61.83 62.51 63.13 63.33 63.03 62.05 61.86 61.03 52.87 54.01 66.97 70.31 72.20 68.41 58.12 57.27 54.85 52.11 47.37 48.94 48.60 46.95 42.60 48.46 50.43 50.90 50.20 48.46 47.64 49.61 45.82 43.70 46.95 47.99 50.36 52.33 51.63
59.32 59.17 58.73 58.26 57.82 57.65 58.18 59.07 59.34 61.12 62.14 62.47 62.35 61.92 62.06 57.50 41.03 56.65 71.71 72.52 71.49 62.11 58.30 55.16 52.00 47.26 45.02 44.42 48.63 43.60 48.44 49.41 50.06 51.37 49.90 47.82 50.06 48.08 47.46 47.43 50.05 51.19 51.93 51.96 51.17
57.57 57.50 57.38 57.24 57.15 57.11 57.29 58.15 57.91 58.69 60.14 61.02 61.76 61.67 57.11 49.20 48.58 58.51 71.26 71.43 66.13 58.77 55.77 53.40 48.43 46.88 43.66 45.65 46.92 44.64 46.72 49.30 50.00 49.77 49.46 50.01 48.04 47.72 48.06 50.58 51.15 52.74 52.12 51.33 51.11
57.49 57.30 57.15 56.97 56.87 56.92 57.12 57.51 57.77 58.22 58.95 59.59 61.39 61.14 51.61 40.83 53.59 65.78 65.96 63.15 60.17 57.35 55.12 53.87 49.56 50.18 46.74 46.01 44.92 46.39 47.13 47.88 48.86 49.00 48.93 47.55 47.41 47.82 48.75 50.71 49.42 51.80 50.98 51.03 51.59
57.24 57.05 56.93 56.69 57.10 57.26 57.03 57.61 57.53 57.99 58.57 59.56 61.12 58.94 51.81 46.60 55.44 64.60 62.51 59.12 58.19 56.96 53.69 53.82 52.53 47.89 47.11 44.73 48.83 48.28 44.20 45.18 46.16 47.18 46.98 48.82 44.78 45.49 50.03 49.27 48.92 49.28 49.71 50.31 51.45
57.05 56.79 56.39 56.70 56.87 57.13 57.66 57.89 58.31 58.91 59.69 60.74 61.09 55.68 45.87 54.60 55.28 60.50 59.18 55.94 57.99 57.40 56.53 55.14 53.04 50.01 47.26 47.63 46.52 43.28 41.69 37.43 43.93 46.49 47.59 47.38 38.97 46.13 48.22 46.81 46.52 46.08 47.18 49.54 50.69
56.85 56.58 56.23 56.74 56.88 57.10 57.23 58.05 58.88 59.88 60.75 61.31 54.50 51.45 46.43 58.93 52.60 56.59 57.91 55.49 55.97 55.99 54.57 56.50 52.91 47.37 46.90 40.82 38.00 38.47 33.33 36.67 41.07 46.30 45.89 44.65 39.90 46.29 47.78 46.76 46.22 44.45 46.16 48.05 49.40
56.61 56.88 56.79 56.55 56.35 56.38 57.03 57.93 58.35 58.35 59.26 59.80 57.89 47.07 50.00 49.39 52.75 53.88 55.55 57.22 54.16 52.73 51.93 50.24 46.80 42.31 40.44 37.86 31.29 34.39 34.71 37.97 37.67 42.73 44.14 41.89 41.20 43.80 45.49 45.65 46.15 45.46 45.25 46.21 49.43
56.27 56.66 56.36 56.12 55.73 56.07 54.44 49.77 47.28 46.40 49.25 48.04 48.86 47.95 50.08 53.60 54.13 51.12 55.33 54.48 52.66 48.62 43.21 46.39 40.93 37.23 40.57 40.99 41.44 39.60 37.58 37.06 39.97 44.61 42.13 40.83 41.43 43.52 45.13 43.61 42.50 43.97 43.31 47.93 49.55
55.98 55.97 56.08 55.73 54.89 55.35 50.83 48.89 46.31 48.70 43.00 50.52 49.98 49.19 51.53 52.82 48.97 50.56 55.23 49.86 47.45 42.88 44.18 41.79 38.87 43.61 44.92 44.39 42.72 41.23 38.46 37.48 41.06 44.31 41.19 39.54 38.95 41.66 42.89 42.93 43.29 43.39 43.68 47.95 49.10
55.84 55.57 55.80 55.23 54.57 48.22 45.57 44.17 48.22 47.52 43.05 46.75 49.90 48.67 49.44 50.00 46.78 48.87 51.53 49.69 46.10 42.16 42.54 39.59 43.14 47.06 44.96 43.15 41.57 40.58 38.25 37.42 38.72 41.73 40.74 38.24 37.26 38.81 41.69 43.54 44.69 44.31 47.86 49.15 49.38
55.98 56.03 55.00 54.64 46.21 45.61 44.78 47.56 47.37 46.64 36.84 40.11 46.46 49.13 49.47 48.98 44.18 52.31 51.79 50.64 45.63 43.64 42.75 41.37 46.70 44.84 42.95 41.77 42.95 37.97 43.02 42.73 41.55 36.65 31.39 37.05 28.43 34.65 39.02 42.13 43.68 46.01 47.36 48.33 49.34
56.31 55.83 55.48 52.71 44.66 42.02 45.10 47.89 47.81 47.56 23.25 42.15 45.73 51.86 49.07 46.10 47.11 47.34 52.67 49.57 45.37 43.64 42.93 40.76 42.97 42.04 41.55 42.92 43.71 40.55 43.96 42.15 40.55 35.50 32.77 33.59 30.41 33.12 36.64 39.08 41.05 44.41 46.67 47.90 48.97
55.28 55.18 55.01 49.30 46.20 45.85 48.35 48.40 46.05 35.72 24.15 39.85 46.51 43.95 42.11 44.49 45.46 49.04 48.08 50.32 49.87 44.72 42.97 43.55 47.80 45.44 43.78 45.84 45.34 45.11 41.33 38.65 36.97 34.13 27.57 33.11 32.76 30.15 33.69 39.46 41.46 44.45 47.37 48.51 49.00
54.56 54.17 52.80 51.80 43.50 48.55 48.70 42.69 35.31 30.04 39.67 38.67 41.47 43.61 41.81 40.82 41.93 43.19 42.80 42.51 40.60 37.39 37.11 41.66 42.66 45.39 46.07 42.15 43.63 41.27 36.12 26.32 26.71 25.25 25.97 34.78 31.05 33.27 38.75 42.41 45.33 45.84 47.39 48.58 49.19
53.59 53.06 51.62 50.75 50.29 48.74 42.66 40.10 30.49 33.93 36.80 41.84 39.57 40.20 38.27 42.04 41.22 41.64 39.61 37.17 41.50 40.57 36.97 34.92 31.92 41.83 45.37 43.59 40.13 37.60 36.21 27.52 21.44 22.75 26.28 35.74 29.84 37.06 42.63 44.15 46.47 49.09 49.00 49.18 48.88
51.23 45.92 45.73 47.25 48.40 45.28 35.72 29.03 30.82 35.01 37.92 35.76 37.30 36.72 36.35 38.46 38.20 38.43 37.12 37.52 40.16 42.09 36.87 34.75 34.66 43.74 44.80 45.27 44.37 37.53 33.60 39.18 31.11 29.97 25.62 30.26 34.94 40.31 43.29 44.47 47.04 47.47 48.41 48.12 48.65
42.90 41.45 42.35 46.96 46.58 41.05 31.19 26.87 30.78 37.62 35.98 35.15 29.23 34.62 32.95 33.13 35.27 35.50 34.57 39.53 40.20 42.33 44.31 39.07 34.70 42.16 43.45 43.82 42.08 40.37 41.27 32.40 30.70 24.35 23.49 28.31 29.71 33.66 38.80 41.90 45.59 46.58 47.23 47.96 48.72
40.32 35.24 41.09 45.39 43.54 36.71 29.56 27.02 32.19 36.55 36.64 33.46 32.03 30.91 30.87 30.14 32.06 33.63 36.40 40.04 41.30 40.89 41.58 39.25 38.43 37.35 39.87 37.85 37.15 36.40 35.38 35.58 34.41 31.22 25.67 25.12 30.07 37.79 40.91 43.69 45.09 46.62 47.76 48.13 48.47
37.54 29.64 40.73 45.57 33.08 36.47 31.65 33.86 38.08 35.45 37.72 34.89 34.33 32.88 30.66 31.38 29.26 29.70 32.02 37.58 42.45 41.27 35.43 38.92 35.05 33.56 37.52 40.88 42.43 42.85 39.59 36.23 29.22 27.89 30.02 28.33 30.74 39.95 42.17 45.13 47.00 47.07 48.02 48.67 49.39
37.28 36.20 40.49 39.91 27.05 24.33 31.75 33.66 36.13 34.98 34.53 34.16 33.04 34.80 33.94 30.53 27.67 31.21 33.56 41.22 42.10 40.05 37.55 38.78 33.33 28.21 30.31 35.94 38.65 36.01 37.12 38.64 35.63 33.19 29.00 26.62 30.80 42.40 42.23 43.56 46.53 46.82 47.93 48.81 49.20
33.03 30.27 35.96 35.19 33.23 29.03 27.99 28.27 28.68 36.35 35.08 36.11 34.78 35.53 33.18 30.40 33.16 30.82 32.38 37.68 39.82 41.24 44.19 40.90 36.17 31.17 28.16 31.20 34.80 33.27 37.09 38.91 37.11 32.78 32.79 32.48 34.14 39.31 40.85 42.39 43.83 46.50 48.14 48.50 48.82
32.86 26.94 33.78 27.87 28.32 30.92 30.83 30.56 28.77 28.60 34.27 35.46 33.40 32.97 32.12 28.26 29.71 29.19 31.57 33.17 37.29 41.14 39.51 38.73 31.16 34.12 34.37 35.51 35.64 35.48 37.33 38.45 35.81 36.95 33.72 37.13 36.84 41.15 41.87 41.38 43.93 46.63 48.00 47.93 47.93
26.32 29.58 33.93 30.50 30.94 28.78 30.86 29.88 28.77 29.78 30.87 29.30 29.96 32.97 32.36 29.70 30.27 28.76 29.83 30.22 30.26 34.89 35.45 38.36 30.63 33.07 30.21 35.50 36.22 34.72 37.47 39.29 38.94 38.71 38.12 38.05 36.23 42.14 44.68 41.32 43.37 46.35 47.91 47.53 47.64
34.65 35.47 34.21 31.06 28.67 28.18 27.03 28.11 28.85 31.24 32.15 33.78 33.00 31.60 29.94 31.37 34.82 36.21 33.16 33.21 34.60 32.30 31.86 30.83 30.66 28.71 22.78 32.35 33.00 30.60 35.33 37.59 38.23 38.89 39.12 34.69 40.43 43.85 41.09 42.34 44.92 46.45 48.35 48.11 48.10
MSLP
1019.96 1019.69 1019.41 1019.14 1018.80 1018.51 1018.17 1017.75 1017.32 1016.88 1016.43 1016.01 1015.53 1015.13 1014.77 1014.33 1013.79 1013.44 1012.86 1011.18 1011.29 1011.09 1011.25 1011.34 1011.56 1011.78 1011.88 1012.05 1012.10 1012.48 1013.39 1013.34 1012.34 1011.59 1010.92 1010.32 1010.08 1009.64 1009.49 1009.68 1009.96 1010.22 1010.79 1010.73 1010.90
1020.03 1019.77 1019.53 1019.26 1018.91 1018.52 1018.12 1017.71 1017.24 1016.74 1016.34 1015.90 1015.48 1015.16 1014.69 1014.39 1013.99 1012.59 1010.46 1010.29 1010.56 1010.98 1011.53 1011.52 1011.49 1011.66 1012.33 1012.43 1012.57 1012.83 1013.38 1012.57 1011.58 1011.12 1010.82 1010.58 1010.29 1009.94 1009.86 1009.99 1010.43 1010.69 1010.93 1011.04 1011.16
1020.12 1019.78 1019.58 1019.27 1018.86 1018.39 1017.98 1017.64 1017.22 1016.73 1016.18 1015.68 1015.31 1015.04 1014.75 1014.46 1013.77 1010.75 1009.53 1009.92 1010.39 1010.70 1010.98 1011.35 1011.49 1011.67 1012.20 1012.49 1012.78 1012.96 1012.83 1012.05 1011.35 1010.93 1010.67 1010.59 1010.52 1010.29 1010.16 1010.48 1010.66 1010.91 1011.18 1011.30 1011.28
1020.33 1019.94 1019.53 1019.12 1018.69 1018.24 1017.75 1017.27 1016.91 1016.49 1016.02 1015.64 1015.24 1014.92 1014.62 1014.54 1012.70 1009.65 1009.09 1009.76 1010.27 1010.87 1011.21 1011.34 1011.77 1012.08 1012.20 1012.43 1012.32 1012.61 1012.13 1011.86 1011.29 1010.79 1010.56 1010.44 1010.51 1010.49 1010.36 1010.40 1010.31 1010.35 1010.63 1011.08 1011.37
1020.46 1020.04 1019.57 1019.11 1018.55 1018.10 1017.57 1017.02 1016.47 1016.06 1015.79 1015.50 1015.18 1014.82 1014.54 1013.91 1011.60 1009.50 1009.58 1009.91 1010.50 1011.05 1011.24 1011.48 1011.86 1012.12 1012.32 1012.20 1012.21 1012.35 1011.92 1011.45 1010.86 1010.71 1010.51 1010.18 1010.48 1010.72 1010.35 1010.12 1010.29 1010.59 1010.85 1010.85 1011.10
1020.67 1020.16 1019.63 1019.06 1018.46 1017.82 1017.19 1016.52 1016.07 1015.65 1015.34 1015.00 1014.90 1014.86 1014.61 1013.08 1009.66 1009.52 1009.78 1010.38 1010.34 1010.70 1011.03 1011.41 1011.44 1011.62 1012.04 1012.04 1012.20 1011.78 1011.56 1011.19 1010.69 1010.50 1010.54 1010.61 1010.60 1010.84 1009.96 1009.78 1010.11 1010.66 1010.87 1010.89 1011.07
1020.73 1020.20 1019.65 1019.01 1018.33 1017.56 1016.69 1016.01 1015.31 1014.93 1014.74 1014.63 1014.54 1014.44 1014.00 1011.02 1009.49 1009.57 1009.89 1009.86 1010.08 1010.27 1010.65 1010.89 1011.11 1011.50 1011.84 1012.05 1011.84 1011.73 1011.80 1011.26 1010.57 1010.23 1010.32 1010.53 1010.85 1010.44 1009.43 1009.88 1010.28 1010.81 1010.89 1011.04 1010.99
1020.91 1020.36 1019.69 1018.96 1018.09 1017.22 1016.25 1015.37 1014.66 1014.07 1013.76 1013.86 1014.15 1014.28 1012.81 1009.78 1009.60 1009.75 1009.90 1010.19 1010.19 1010.27 1010.37 1010.46 1010.65 1011.34 1011.80 1012.04 1012.18 1012.24 1012.23 1011.94 1010.51 1010.18 1010.12 1010.59 1010.15 1009.46 1009.49 1010.08 1010.34 1010.46 1010.85 1011.03 1011.08
1021.02 1020.46 1019.79 1019.07 1018.12 1016.95 1015.72 1014.54 1013.77 1013.22 1013.32 1013.60 1014.03 1013.94 1011.88 1009.37 1009.51 1009.06 1009.51 1009.71 1010.00 1010.39 1010.46 1010.46 1010.76 1011.51 1012.18 1012.87 1013.47 1013.28 1012.89 1012.37 1011.26 1010.06 1010.14 1010.45 1010.06 1009.34 1009.27 1009.67 1010.02 1010.29 1010.64 1011.07 1011.96
1020.92 1020.43 1019.64 1018.83 1017.98 1016.82 1015.38 1014.07 1013.36 1013.29 1013.54 1013.50 1013.42 1013.72 1010.86 1009.37 1008.58 1008.47 1008.89 1009.47 1010.09 1010.45 1010.80 1010.91 1011.66 1012.25 1012.95 1013.60 1013.74 1013.33 1013.20 1012.27 1011.54 1010.52 1010.29 1010.34 1010.03 1009.60 1009.50 1009.77 1009.94 1010.23 1010.65 1011.49 1012.11
1020.87 1020.38 1019.72 1018.77 1017.82 1016.61 1015.42 1014.35 1014.83 1014.12 1014.10 1013.87 1012.75 1011.66 1009.92 1008.69 1008.24 1008.29 1008.42 1009.31 1009.92 1010.73 1011.32 1011.56 1012.40 1012.29 1012.46 1012.85 1012.78 1012.88 1012.86 1012.39 1011.35 1010.63 1010.46 1010.23 1009.92 1009.58 1009.25 1009.62 1009.91 1010.47 1011.11 1011.87 1012.40
1021.03 1020.57 1019.92 1018.81 1017.96 1017.05 1016.16 1016.96 1018.78 1018.95 1015.91 1013.23 1011.67 1011.22 1009.47 1009.38 1009.25 1008.17 1008.13 1009.26 1009.78 1010.69 1011.62 1012.30 1011.97 1011.63 1012.21 1012.63 1012.89 1012.80 1012.64 1012.03 1011.09 1010.36 1010.37 1010.18 1009.84 1009.14 1009.00 1008.82 1008.89 1009.45 1010.90 1011.72 1012.25
1021.01 1020.68 1019.97 1018.92 1018.09 1017.63 1017.71 1018.23 1018.51 1018.16 1016.78 1012.35 1010.23 1009.45 1008.83 1008.99 1008.59 1008.45 1008.29 1008.67 1009.32 1010.36 1011.03 1011.57 1011.09 1010.70 1011.64 1011.94 1012.38 1012.23 1012.12 1011.62 1011.08 1010.41 1010.18 1010.21 1009.43 1008.88 1008.30 1008.43 1008.70 1009.12 1010.05 1011.27 1011.82
1020.89 1020.62 1020.01 1019.22 1019.13 1019.21 1018.51 1017.88 1017.50 1017.86 1016.53 1011.75 1009.24 1007.72 1007.56 1007.75 1007.60 1007.23 1007.49 1008.35 1009.11 1009.70 1010.92 1011.11 1010.47 1010.59 1011.15 1011.12 1011.40 1011.50 1010.97 1011.01 1010.98 1011.11 1011.54 1011.12 1010.74 1009.38 1008.37 1008.77 1009.36 1009.89 1010.74 1011.33 1011.77
1021.04 1020.81 1020.37 1019.82 1020.35 1019.94 1018.92 1017.91 1017.32 1017.39 1015.18 1009.77 1008.00 1006.44 1006.80 1007.58 1006.89 1006.40 1006.55 1007.55 1008.16 1009.10 1010.09 1009.46 1009.56 1009.60 1009.90 1009.45 1010.23 1010.26 1010.31 1010.61 1011.03 1011.65 1012.12 1012.06 1012.34 1008.92 1008.87 1009.18 1009.84 1010.60 1011.03 1011.34 1011.52
1021.00 1020.51 1020.44 1020.52 1020.42 1019.43 1018.79 1017.87 1017.20 1017.12 1013.58 1009.43 1007.54 1006.92 1007.58 1007.45 1007.28 1006.78 1006.83 1007.35 1007.80 1009.02 1009.17 1009.06 1008.80 1008.76 1008.68 1008.48 1008.94 1009.58 1010.44 1011.44 1012.27 1012.79 1012.88 1011.89 1011.98 1009.35 1008.93 1008.13 1009.28 1010.45 1010.98 1011.24 1011.54
1021.01 1020.90 1020.83 1020.61 1019.85 1019.14 1018.92 1018.45 1017.82 1015.96 1011.83 1009.76 1008.88 1008.04 1007.84 1007.68 1007.33 1007.33 1007.49 1007.86 1008.13 1009.06 1008.88 1009.23 1008.50 1008.20 1008.27 1008.52 1008.70 1009.44 1010.84 1012.76 1013.75 1014.13 1013.18 1012.06 1012.08 1008.82 1007.68 1007.62 1007.79 1008.96 1010.41 1011.17 1011.36
1020.89 1020.84 1020.64 1020.20 1019.26 1019.08 1019.32 1019.17 1017.94 1014.34 1012.58 1010.61 1010.01 1009.15 1009.04 1008.10 1007.70 1007.40 1007.86 1008.40 1008.70 1008.70 1008.84 1009.32 1008.39 1007.56 1007.02 1007.22 1008.07 1009.28 1010.56 1012.50 1013.48 1014.08 1013.22 1012.08 1010.85 1007.82 1006.98 1006.64 1007.19 1008.58 1009.81 1010.92 1011.34
1020.92 1020.76 1020.47 1019.14 1019.23 1019.19 1019.70 1019.29 1016.51 1014.76 1013.13 1012.49 1011.18 1010.60 1009.99 1009.21 1009.03 1008.02 1008.22 1008.24 1008.18 1008.70 1008.79 1008.85 1008.07 1006.59 1006.02 1006.34 1007.29 1008.99 1009.93 1010.52 1012.47 1013.62 1013.42 1011.42 1009.33 1007.25 1007.19 1007.41 1007.99 1008.89 1009.88 1010.65 1011.15
1021.45 1021.11 1020.08 1018.53 1019.12 1019.64 1019.75 1018.15 1016.48 1014.76 1014.16 1013.90 1013.42 1012.29 1011.56 1011.31 1010.65 1010.02 1009.33 1009.33 1008.51 1008.56 1008.29 1008.07 1007.91 1006.99 1006.43 1006.42 1006.61 1007.12 1008.70 1010.63 1011.91 1013.40 1012.89 1010.65 1009.40 1007.62 1007.47 1007.96 1008.56 1009.11 1009.81 1010.54 1011.02
1021.28 1021.26 1019.78 1018.68 1019.13 1020.21 1019.51 1018.35 1016.76 1015.56 1015.45 1015.12 1014.25 1013.77 1013.04 1012.95 1012.44 1011.75 1010.62 1010.32 1009.86 1009.44 1009.21 1008.95 1008.24 1007.36 1007.18 1006.46 1006.72 1007.56 1008.03 1009.19 1010.43 1011.40 1011.64 1010.45 1007.72 1005.80 1006.10 1006.73 1007.68 1008.86 1009.43 1010.09 1010.71
1021.92 1021.69 1019.82 1019.19 1019.91 1019.88 1019.17 1018.39 1017.39 1016.76 1016.48 1015.98 1015.28 1014.60 1014.41 1014.05 1013.50 1012.92 1011.83 1011.02 1010.75 1010.79 1011.12 1010.87 1009.90 1008.27 1007.10 1006.62 1006.40 1006.25 1006.83 1007.98 1009.42 1010.30 1010.16 1009.66 1006.98 1005.22 1005.30 1005.86 1007.03 1008.28 1009.34 1009.90 1010.47
1022.29 1021.44 1020.26 1020.27 1020.62 1020.27 1019.60 1019.10 1018.62 1017.81 1017.10 1016.88 1016.01 1015.46 1014.81 1014.53 1014.25 1012.92 1012.14 1011.58 1011.58 1011.80 1012.20 1012.08 1011.19 1010.11 1008.41 1007.92 1007.13 1007.03 1006.98 1006.94 1007.74 1008.52 1008.64 1008.54 1006.56 1005.15 1005.16 1006.03 1006.99 1007.94 1008.95 1009.73 1010.35
1022.71 1022.01 1021.18 1021.02 1020.51 1020.30 1019.80 1018.76 1018.05 1017.09 1016.98 1016.93 1016.66 1016.16 1015.38 1014.83 1014.28 1013.41 1012.71 1012.15 1012.06 1012.14 1012.41 1012.65 1012.68 1012.34 1011.04 1009.98 1010.18 1007.94 1006.93 1006.61 1006.97 1007.23 1007.14 1006.09 1005.81 1005.36 1005.55 1006.26 1006.97 1007.64 1008.52 1009.48 1010.04
1022.73 1022.27 1021.62 1021.24 1020.72 1020.15 1019.70 1018.63 1017.71 1017.06 1016.79 1016.44 1015.84 1016.03 1015.49 1014.78 1014.00 1013.46 1013.13 1012.87 1012.76 1012.68 1012.68 1012.84 1012.90 1013.43 1012.52 1011.69 1010.41 1009.07 1007.42 1005.93 1005.66 1005.36 1005.56 1004.74 1004.89 1004.42 1004.87 1005.52 1006.08 1007.03 1008.16 1009.00 1009.82
1022.72 1022.55 1021.81 1021.26 1020.88 1020.43 1019.64 1017.90 1017.44 1016.81 1016.73 1015.90 1015.85 1015.18 1015.35 1014.78 1013.93 1013.11 1012.88 1012.75 1012.95 1013.53 1013.46 1013.43 1013.21 1013.14 1012.41 1011.76 1010.96 1009.00 1007.17 1005.15 1004.15 1004.08 1003.81 1003.86 1003.48 1003.57 1003.70 1004.62 1005.65 1006.16 1007.20 1008.21 1008.83
1021.67 1021.52 1021.54 1020.70 1020.03 1019.75 1018.47 1017.21 1016.64 1016.56 1015.63 1015.37 1015.32 1015.07 1014.71 1014.67 1013.50 1012.29 1012.01 1012.17 1012.59 1013.38 1013.94 1014.29 1014.16 1013.92 1012.34 1012.09 1011.54 1009.33 1006.48 1004.66 1003.49 1003.08 1002.81 1002.84 1002.48 1002.90 1003.37 1003.93 1004.50 1005.27 1005.96 1006.75 1007.68
Wind_Speed
14 14 15 15 16 16 16 18 18 18 16 17 17 16 16 13 14 2 6 10 7 12 7 4 2 4 2 1 0 3 3 2 3 1 1 4 2 2 1 5 1 1 8 8 9
17 17 18 18 18 18 18 19 18 18 18 17 17 17 15 13 4 7 11 11 12 13 5 6 5 3 3 2 2 4 3 6 3 2 2 3 3 4 3 3 2 2 4 3 4
15 16 17 18 18 18 18 19 19 19 19 18 18 17 15 9 4 7 9 11 14 13 5 5 2 4 3 2 2 3 4 3 3 2 5 3 4 2 5 2 7 5 7 6 5
16 16 16 17 18 18 18 17 19 18 18 18 18 16 12 2 4 3 6 15 15 6 3 3 2 2 3 4 4 2 8 6 6 4 4 3 1 4 3 7 4 8 12 7 7
16 17 17 18 19 21 21 20 20 19 18 18 16 12 4 1 10 4 12 12 8 7 5 3 4 5 4 4 2 5 7 6 8 6 7 3 5 6 7 9 6 7 6 8 7
18 19 20 21 22 22 22 22 22 21 18 16 12 6 1 4 5 6 9 7 6 6 4 4 5 6 4 4 6 4 3 6 5 4 4 5 7 6 9 9 4 9 11 10 9
19 20 22 23 23 23 24 23 23 21 19 15 8 3 2 15 2 6 9 8 5 6 5 5 5 3 1 4 4 3 6 7 6 5 7 6 7 10 15 4 8 10 9 8 10
20 22 23 23 24 26 26 25 23 20 16 7 5 2 9 5 2 6 5 2 4 4 4 4 4 4 3 3 7 4 3 2 5 2 7 10 10 10 8 7 11 10 9 9 8
22 24 26 26 27 29 29 27 22 10 4 8 4 2 10 8 5 9 8 7 7 4 5 3 4 3 2 3 5 3 4 5 9 6 3 8 7 14 7 8 9 8 10 10 7
22 23 25 27 29 31 30 23 10 2 3 4 3 2 5 5 4 8 9 8 5 4 1 3 4 2 2 4 6 6 5 5 5 4 3 6 10 8 7 6 9 9 8 7 7
20 20 23 27 30 28 15 6 9 7 6 6 5 6 7 3 3 5 10 9 5 4 7 3 3 9 12 8 5 1 3 6 6 9 6 8 10 13 10 6 9 9 7 8 8
19 20 22 28 28 16 7 8 7 7 15 13 22 18 20 4 5 6 11 11 8 10 6 1 12 11 7 6 8 8 8 9 10 6 6 7 11 12 9 9 10 14 11 11 7
16 18 20 28 18 6 1 9 7 8 6 13 7 8 7 13 14 9 11 6 8 9 11 12 9 5 11 9 8 9 9 6 8 4 4 4 11 8 5 2 2 4 13 9 10
15 15 19 24 8 7 3 14 10 3 5 10 6 7 4 6 7 19 10 10 5 15 6 9 17 16 7 8 10 13 8 10 5 3 4 3 9 7 7 5 4 8 9 9 9
14 15 15 7 3 5 6 12 12 3 6 2 4 3 5 6 3 6 13 7 16 8 9 9 6 9 14 21 8 9 8 6 4 2 2 3 2 8 1 5 7 7 7 8 8
14 15 16 4 4 6 10 15 1 3 10 7 1 2 5 2 5 4 11 3 6 6 5 14 6 4 7 7 13 4 4 7 5 2 4 9 9 8 5 8 7 5 7 9 8
12 14 11 6 4 7 10 5 2 6 5 3 3 4 2 4 4 2 4 12 9 10 15 9 16 8 5 5 2 5 7 2 3 2 8 3 3 12 6 7 16 18 14 10 8
12 12 6 8 7 5 4 2 7 2 6 4 5 5 5 4 7 7 6 5 9 4 3 12 7 16 9 19 8 7 10 8 8 4 6 1 8 9 4 5 7 12 14 11 8
9 2 3 7 5 4 4 4 8 5 3 8 10 1 4 2 3 1 8 7 9 16 11 8 8 5 5 10 14 6 6 8 5 1 2 6 8 9 5 6 13 15 15 13 9
3 2 5 7 4 4 3 9 6 3 5 5 3 3 4 7 7 7 3 5 2 1 14 6 12 10 6 5 3 12 9 3 3 4 6 6 5 10 5 6 9 14 14 12 9
3 3 5 5 5 1 7 7 6 10 11 4 3 5 4 4 4 4 5 4 5 7 6 2 12 8 4 8 10 3 5 3 6 7 6 3 8 6 12 14 17 13 13 14 12
2 3 3 6 2 2 11 6 5 11 12 8 5 3 5 6 6 5 7 1 3 4 5 5 4 10 21 5 7 17 16 8 7 5 5 3 8 3 8 14 13 14 12 12 12
2 5 4 5 5 5 7 12 8 12 21 6 9 7 2 5 5 8 7 2 6 4 4 7 3 3 2 5 4 5 4 7 5 4 7 6 7 4 5 9 11 15 13 13 13
1 4 2 1 3 6 10 14 15 12 13 10 12 20 20 16 8 6 3 3 3 4 8 6 2 3 5 4 10 6 8 11 11 11 7 10 5 3 2 7 8 12 13 14 13
1 4 1 5 7 12 9 8 13 11 10 11 8 17 20 16 12 9 7 5 1 1 2 5 8 8 9 13 16 18 21 18 16 17 16 16 16 14 8 11 15 12 13 15 15
3 2 3 6 13 15 13 5 11 15 11 14 13 17 13 17 20 12 8 5 5 0 4 4 4 7 17 13 15 19 19 21 23 20 21 13 8 5 10 4 9 16 18 18 18
3 3 3 7 9 11 10 13 16 12 11 17 17 14 13 21 19 19 8 6 8 9 6 4 4 3 16 5 12 9 21 17 11 10 10 15 14 10 4 9 15 16 20 21 20
Wind_Direction
9 7 4 359 356 350 347 345 342 338 335 331 331 332 328 328 315 134 234 215 188 180 181 163 154 298 13 301 50 87 71 224 243 296 281 310 197 333 183 114 35 128 154 196 177
13 10 6 1 356 351 345 340 336 334 330 329 331 330 326 331 299 248 236 223 205 166 158 165 164 137 12 327 353 97 130 220 211 250 164 322 315 183 108 42 320 46 48 80 141
14 11 5 357 351 347 342 339 336 333 330 328 329 329 322 326 303 250 194 195 166 170 172 173 132 144 153 123 218 183 203 221 278 226 180 160 295 321 133 199 217 191 173 179 160
5 360 355 349 345 340 334 329 327 324 324 324 327 326 317 288 293 284 170 163 167 156 152 171 166 150 161 199 201 193 237 234 261 255 207 197 227 311 198 230 211 169 175 174 167
6 0 355 350 344 338 332 325 322 318 318 320 320 324 334 291 252 253 147 159 137 153 184 191 191 177 199 212 161 205 252 253 263 280 237 171 223 229 250 241 205 196 185 169 165
1 356 350 345 339 333 327 321 319 315 309 310 312 316 241 262 239 162 140 140 167 162 196 167 220 203 242 238 167 247 241 263 269 247 234 203 238 139 256 243 203 178 194 186 184
356 351 346 341 335 329 323 318 313 309 303 301 289 221 233 238 327 164 166 183 178 172 170 197 220 169 138 303 298 276 318 324 251 226 228 180 277 225 241 197 247 203 212 210 209
353 348 343 338 331 327 320 314 308 302 296 272 192 189 245 254 186 172 186 204 212 224 189 221 148 165 159 292 350 326 30 352 296 166 238 150 258 258 257 201 244 235 207 207 217
351 348 342 337 332 326 321 314 309 302 154 137 129 164 264 305 181 194 169 186 183 228 249 185 99 167 39 108 357 327 229 220 312 214 148 173 249 256 221 195 232 213 200 208 129
351 346 338 335 334 329 321 313 298 32 130 177 254 4 256 252 223 176 187 189 159 172 187 139 64 159 75 114 216 212 230 239 233 285 168 227 259 269 257 222 232 217 200 144 144
346 343 337 333 333 330 334 8 8 353 18 260 240 259 282 255 275 204 172 160 133 142 177 222 168 212 209 203 220 257 254 269 267 261 203 230 243 252 254 256 250 235 166 158 153
344 342 339 334 333 338 5 66 44 282 297 268 251 252 253 330 309 271 137 171 156 198 136 221 238 228 211 221 236 255 263 270 273 242 192 255 251 247 234 234 219 215 158 161 147
338 340 342 333 328 15 73 54 305 324 260 288 236 233 233 178 221 248 176 164 182 172 186 200 241 179 202 236 232 240 232 242 238 289 309 296 285 251 240 200 67 115 151 144 155
337 340 349 339 28 332 344 337 334 291 306 276 234 248 185 169 233 202 198 162 194 205 163 227 237 264 225 240 219 254 211 235 255 61 250 52 284 256 246 175 126 128 138 148 151
341 341 352 19 249 315 302 320 318 99 329 230 199 149 142 178 266 205 185 184 198 170 161 219 196 216 231 239 195 232 207 201 206 222 350 198 235 271 93 195 181 185 166 161 152
347 345 351 352 303 243 319 312 93 59 252 303 180 163 113 230 299 5 176 115 165 207 225 221 227 179 214 243 211 190 108 40 40 71 298 213 171 278 218 199 160 171 182 165 158
353 341 329 301 261 314 326 336 97 193 307 287 357 24 301 217 224 188 154 194 182 197 225 247 242 252 229 261 109 105 93 330 332 359 229 161 160 248 260 219 181 175 174 173 160
338 317 260 250 260 318 349 46 234 263 272 10 358 309 232 190 243 200 168 197 239 199 158 219 288 219 219 212 182 184 154 162 212 206 252 315 233 253 269 277 158 159 150 155 156
337 324 256 258 230 132 80 200 218 215 324 360 340 281 285 263 296 239 199 194 199 202 204 187 248 260 210 196 174 181 189 179 105 349 34 236 287 310 66 81 133 146 154 162 164
333 350 263 303 133 54 103 226 237 258 42 12 281 292 293 350 1 21 308 354 296 328 227 217 270 247 276 158 179 176 160 99 32 207 237 274 263 246 227 181 162 162 166 164 158
43 0 274 323 92 110 226 233 302 309 341 301 310 303 310 332 320 325 301 22 12 342 13 312 233 231 158 198 185 148 175 141 143 154 193 271 258 215 200 184 181 179 170 165 164
21 311 272 13 18 233 244 232 228 285 310 274 276 283 265 298 260 250 233 334 2 2 17 26 300 235 240 228 217 214 198 155 144 220 214 180 268 328 205 191 172 168 171 165 165
280 270 320 67 253 255 270 274 284 282 273 273 290 279 246 220 266 230 237 323 66 73 56 357 356 326 89 323 251 214 193 204 133 107 195 170 263 3 102 148 168 166 169 168 159
340 294 300 180 208 230 249 262 272 237 245 246 272 276 273 268 227 253 281 345 65 102 151 89 285 288 277 306 337 260 213 201 195 226 213 224 272 312 149 179 181 175 167 170 165
187 254 319 289 280 248 235 256 259 269 255 262 264 238 272 265 251 232 208 236 50 50 151 171 237 267 288 301 301 281 271 207 207 216 212 242 236 244 221 198 196 177 165 167 172
183 237 236 274 281 290 275 231 247 263 254 269 256 271 306 276 261 248 196 192 187 295 157 184 274 269 281 304 313 297 290 230 222 217 232 235 241 262 242 132 158 181 175 179 178
239 259 253 278 273 266 239 249 257 258 249 237 254 285 266 275 279 259 206 172 168 162 166 164 175 220 264 265 332 276 254 241 219 223 222 225 246 251 237 200 198 188 185 185 182